User: anonymous   Login
Location: Oronoko Observatory
(41.9167°N, 86.3833°W)
Time: 12:52:37
(UTC-05:00)
Language:

PAYLOAD A - Orbit

View from above orbital plane
View from above orbital plane
View from above satellite
View from above satellite

Ground track
Ground track

The orbit data is extracted from the following two-line orbital elements,

1 27840U 03031A   16340.49906292 -.00000007  00000-0  11523-4 0  9997
2 27840  98.1987 340.4377 0097905 343.6731  16.1310 14.38870396705463
Epoch (UTC): 05 December 2016 11:58:39
Eccentricity: 0.0097905
inclination: 98.1987°
perigee height: 692 km
apogee height: 832 km
right ascension of ascending node: 340.4377°
argument of perigee: 343.6731°
revolutions per day: 14.38870396
mean anomaly at epoch: 16.1310°
orbit number at epoch: 70546

The dashed part of the orbit path shows where the satellite is in the earth's shadow,  

DLR